Погода в Ветлах

Украина / Волынская область     51°53′00″N   25°07′12″E
темп.,
°C
ветер,
м/с
пор.,
м/с
влажн.,
%
обл.,
%
осадки,
мм/ч
давл.,
гПа
погр.,
м
9 мая, вс
вс900:00+2з35925 0.0 102083
03:00+2з36945 0.0 1021100
06:00+1зсз23942 0.0 102241
09:00+7зюз22778 0.0 1024348
12:00+11юз33545 0.0 10231459
15:00+14ююз34455 0.0 10231907
18:00+15ююз35495 0.0 10221756
21:00+10ююв35715 0.0 102257
10 мая, пн
пн1000:00+7ююв49755 0.0 1023144
03:00+6ююв4117526 0.0 1023208
06:00+6ююв41084100 0.0 1023169
09:00+12ююв5116586 0.0 1023368
12:00+17ююв795139 0.0 10231062
15:00+19ююв79495 0.0 10221358
18:00+19юв69586 0.0 10211156
21:00+13юв512748 0.0 1022263
11 мая, вт
вт1100:00+11юв513797 0.0 1022287
03:00+9юв513830 0.0 1022276
06:00+8юв514840 0.0 1022290
09:00+13юв712680 0.0 1022519
12:00+17юв810520 0.0 10211075
15:00+19юв79420 0.0 10201286
18:00+18вюв59490 0.0 10191116
21:00+13вюв49730 0.0 1018139
12 мая, ср
ср1200:00+11вюв412840 0.0 1018253
03:00+10вюв39930 0.0 1017187
06:00+10вюв5129720 0.0 1017359
09:00+13вюв7107410 0.0 1016712
12:00+16вюв79545 0.0 10151290
15:00+15в785998 0.0 10141169
18:00+13в696824 0.0 1013976
21:00+10в48808 0.0 1012197
13 мая, чт
чт1300:00+8в511803 0.0 1011402
03:00+6в49965 0.0 1010230
06:00+5в399887 0.0 1009228
09:00+10вюв587611 0.0 1008645
12:00+14вюв685870 0.1 10071665
15:00+11юв61082100 0.1 1007750
18:00+12вюв5986100 0.0 1006821
21:00+10юв4897100 0.3 1006454